Flag for Germany Weather past 2 weeks in Esslingen, Baden-Württemberg, Germany

Now
82 °F

Sunny.


Feels Like: 83 °F
Forecast: 63 / 90 °F
Wind: 2 mph from North

Location: Stuttgart-Echterdingen

Current Time: Aug 30, 2015 at 9:10:12 PM

Latest Report: Aug 30, 2015 at 8:50 PM


Visibility: 10 mi

Pressure: 30.04 "Hg

Humidity: 48%

Dew point: 61 °F

Location of EsslingenLocation

Historic Weather in Esslingen — Graph

°F

Esslingen temperature yesterday

Maximum temperature yesterday: 90 °F (at 3:50 PM)
Minimum temperature yesterday: 63 °F (at 2:50 AM)
Average temperature yesterday: 76 °F

Past Weeks' High & Low Weather Summary

 TemperatureHumidityPressure
High91 °F (Aug 30, 2:20 PM)100% (Aug 16, 2:20 AM)30.27 "Hg (Aug 16, 2:20 AM)
Low48 °F (Aug 18, 5:20 AM)25% (Aug 27, 2:20 PM)29.71 "Hg (Aug 24, 1:50 PM)
Average66 °F70%30.03 "Hg
* Reported Aug 15 7:20 PM — Aug 30 7:50 PM, Esslingen, Weather by CustomWeather, © 2015

Note: Actual official high and low records may vary slightly from our data, if they occured in-between our weather recording intervals... More about our weather records

Advertising

Esslingen weather history for previous 24 hours

 ConditionsComfort  
Time TempWeatherWind HumidityBarometerVisibility
7:50 PM
Sun, Aug 30
86 °FPassing clouds.7 mph40%30.04 "HgN/A
7:20 PM88 °FSunny.7 mph38%30.04 "Hg10 mi
6:50 PM90 °FSunny.7 mph33%30.04 "Hg10 mi
6:20 PM91 °FSunny.8 mph34%30.04 "Hg10 mi
5:50 PM91 °FSunny.2 mph32%30.04 "Hg10 mi
5:20 PM91 °FSunny.2 mph32%30.04 "Hg10 mi
4:50 PM91 °FPassing clouds.3 mph32%30.04 "HgN/A
4:20 PM91 °FSunny.5 mph34%30.07 "Hg10 mi
3:50 PM91 °FPassing clouds.3 mph34%30.07 "HgN/A
3:20 PM91 °FPassing clouds.6 mph36%30.07 "HgN/A
2:50 PM91 °FSunny.3 mph36%30.09 "Hg10 mi
2:20 PM91 °FPassing clouds.5 mph36%30.09 "HgN/A
1:50 PM90 °FPassing clouds.3 mph38%30.09 "HgN/A
1:20 PM88 °FPassing clouds.5 mph43%30.09 "HgN/A
12:50 PM88 °FPassing clouds.6 mph43%30.12 "HgN/A
12:20 PM86 °FSunny.3 mph46%30.12 "Hg10 mi
11:50 AM86 °FSunny.3 mph46%30.12 "Hg10 mi
11:20 AM86 °FSunny.3 mph46%30.12 "Hg10 mi
10:50 AM82 °FSunny.2 mph55%30.12 "Hg10 mi
10:20 AM81 °FSunny.2 mph58%30.12 "Hg10 mi
9:50 AM77 °FSunny.2 mph65%30.12 "Hg10 mi
9:20 AM73 °FPassing clouds.3 mph74%30.12 "HgN/A
8:50 AM72 °FSunny.2 mph78%30.12 "Hg10 mi
8:20 AM68 °FSunny.2 mph83%30.12 "Hg10 mi
7:50 AM66 °FSunny.1 mph88%30.12 "Hg10 mi
7:20 AM63 °FClear.2 mph94%30.12 "Hg10 mi
6:50 AM63 °FClear.3 mph94%30.12 "Hg10 mi
6:20 AM64 °FPassing clouds.3 mph88%30.12 "HgN/A
5:50 AM64 °FClear.1 mph88%30.12 "Hg10 mi
5:20 AM64 °FClear.No wind94%30.09 "Hg10 mi
4:50 AM64 °FClear.1 mph88%30.09 "Hg10 mi
4:20 AM64 °FClear.1 mph88%30.09 "Hg10 mi
3:50 AM64 °FClear.1 mph88%30.09 "Hg10 mi
3:20 AM66 °FClear.1 mph83%30.09 "Hg10 mi
2:50 AM66 °FClear.1 mph88%30.12 "Hg10 mi
2:20 AM68 °FClear.1 mph78%30.12 "Hg10 mi
1:50 AM68 °FClear.1 mph83%30.12 "Hg10 mi
1:20 AM70 °FClear.3 mph78%30.12 "Hg10 mi
12:50 AM70 °FClear.1 mph73%30.12 "Hg10 mi
12:20 AM72 °FClear.2 mph73%30.12 "Hg10 mi
11:50 PM
Sat, Aug 29
72 °FMild.2 mph73%30.12 "HgN/A
11:20 PM73 °FPassing clouds.5 mph69%30.12 "HgN/A
10:50 PM73 °FClear.2 mph69%30.12 "Hg10 mi
10:20 PM75 °FClear.3 mph65%30.12 "Hg10 mi
9:50 PM77 °FClear.1 mph57%30.12 "Hg10 mi
9:20 PM79 °FClear.1 mph54%30.12 "Hg10 mi
Weather by CustomWeather, © 2015

See weather overviewHow to use our weather pages